| time (UTC) | temp C | wind direction | speed KPH | gust KPH | rain 1hr cm | rain 24hr cm | rain mn cm | humidity % | barometer mb |
| 20260505123145 | 7 | 245 | 4.8 | 6.4 | 0.00 | 0.00 | 0.00 | 36 | 1297.8 |
| 20260505122641 | 7 | 242 | 4.8 | 4.8 | 0.00 | 0.00 | 0.00 | 35 | 1297.9 |
| 20260505122138 | 7 | 217 | 3.2 | 4.8 | 0.00 | 0.00 | 0.00 | 35 | 1297.8 |
| 20260505121634 | 7 | 290 | 3.2 | 4.8 | 0.00 | 0.00 | 0.00 | 34 | 1297.8 |
| 20260505121132 | 7 | 247 | 6.4 | 14.5 | 0.00 | 0.00 | 0.00 | 33 | 1297.4 |
| 20260505120627 | 8 | 248 | 4.8 | 9.7 | 0.00 | 0.00 | 0.00 | 33 | 1297.7 |
| 20260505120123 | 7 | 280 | 8.0 | 12.9 | 0.00 | 0.00 | 0.00 | 33 | 1297.4 |
| 20260505115617 | 7 | 231 | 6.4 | 12.9 | 0.00 | 0.00 | 0.00 | 33 | 1297.7 |
| 20260505115115 | 7 | 277 | 11.3 | 14.5 | 0.00 | 0.00 | 0.00 | 34 | 1297.6 |
| 20260505114612 | 7 | 230 | 8.0 | 11.3 | 0.00 | 0.00 | 0.00 | 35 | 1297.8 |
| 20260505114108 | 7 | 223 | 8.0 | 11.3 | 0.00 | 0.00 | 0.00 | 34 | 1297.8 |
| 20260505113605 | 7 | 226 | 11.3 | 14.5 | 0.00 | 0.00 | 0.00 | 34 | 1297.8 |
| 20260505113101 | 7 | 232 | 9.7 | 14.5 | 0.00 | 0.00 | 0.00 | 34 | 1297.7 |
| 20260505112558 | 7 | 250 | 9.7 | 12.9 | 0.00 | 0.00 | 0.00 | 34 | 1297.8 |
| 20260505112056 | 7 | 237 | 8.0 | 12.9 | 0.00 | 0.00 | 0.00 | 33 | 1297.6 |
| 20260505111555 | 7 | 231 | 8.0 | 14.5 | 0.00 | 0.00 | 0.00 | 33 | 1297.6 |
| 20260505111052 | 7 | 240 | 9.7 | 14.5 | 0.00 | 0.00 | 0.00 | 35 | 1297.4 |
| 20260505110548 | 7 | 250 | 8.0 | 14.5 | 0.00 | 0.00 | 0.00 | 34 | 1297.7 |
| 20260505102021 | 7 | 249 | 6.4 | 12.9 | 0.00 | 0.00 | 0.00 | 32 | 1297.4 |
| 20260505101519 | 7 | 253 | 8.0 | 9.7 | 0.00 | 0.00 | 0.00 | 32 | 1297.4 |
| 20260505101015 | 7 | 225 | 6.4 | 12.9 | 0.00 | 0.00 | 0.00 | 32 | 1297.3 |
| 20260505100513 | 8 | 227 | 6.4 | 12.9 | 0.00 | 0.00 | 0.00 | 31 | 1297.3 |
| 20260505100010 | 8 | 244 | 8.0 | 12.9 | 0.00 | 0.00 | 0.00 | 31 | 1297.3 |
| 20260505095505 | 8 | 239 | 8.0 | 9.7 | 0.00 | 0.00 | 0.00 | 31 | 1297.3 |
| 20260505095001 | 8 | 226 | 9.7 | 12.9 | 0.00 | 0.00 | 0.00 | 32 | 1297.6 |
| 20260505094458 | 8 | 216 | 9.7 | 12.9 | 0.00 | 0.00 | 0.00 | 31 | 1297.4 |
| 20260505093955 | 8 | 209 | 8.0 | 12.9 | 0.00 | 0.00 | 0.00 | 32 | 1297.3 |
| 20260505093451 | 8 | 235 | 9.7 | 12.9 | 0.00 | 0.00 | 0.00 | 31 | 1297.1 |
| 20260505092949 | 8 | 235 | 8.0 | 16.1 | 0.00 | 0.00 | 0.00 | 31 | 1297.1 |
| 20260505092446 | 8 | 227 | 9.7 | 12.9 | 0.00 | 0.00 | 0.00 | 32 | 1297.0 |
| 20260505091944 | 8 | 218 | 9.7 | 16.1 | 0.00 | 0.00 | 0.00 | 30 | 1297.3 |
| 20260505091441 | 8 | 245 | 11.3 | 16.1 | 0.00 | 0.00 | 0.00 | 30 | 1297.3 |
| 20260505090939 | 7 | 229 | 11.3 | 12.9 | 0.00 | 0.00 | 0.00 | 32 | 1297.4 |
| 20260505090437 | 8 | 209 | 8.0 | 11.3 | 0.00 | 0.00 | 0.00 | 32 | 1297.4 |
| 20260505085934 | 8 | 223 | 9.7 | 9.7 | 0.00 | 0.00 | 0.00 | 31 | 1297.4 |
| 20260505085432 | 8 | 223 | 6.4 | 11.3 | 0.00 | 0.00 | 0.00 | 30 | 1297.7 |
| 20260505084930 | 8 | 225 | 8.0 | 14.5 | 0.00 | 0.00 | 0.00 | 30 | 1297.4 |
| 20260505084428 | 8 | 227 | 6.4 | 9.7 | 0.00 | 0.00 | 0.00 | 30 | 1297.6 |
| 20260505083925 | 8 | 241 | 6.4 | 11.3 | 0.00 | 0.00 | 0.00 | 29 | 1297.4 |
| 20260505083423 | 8 | 219 | 9.7 | 11.3 | 0.00 | 0.00 | 0.00 | 28 | 1297.8 |
| 20260505082919 | 7 | 234 | 4.8 | 6.4 | 0.00 | 0.00 | 0.00 | 31 | 1297.9 |
| 20260505082415 | 8 | 213 | 6.4 | 6.4 | 0.00 | 0.00 | 0.00 | 29 | 1297.9 |
| 20260505081912 | 8 | 216 | 4.8 | 6.4 | 0.00 | 0.00 | 0.00 | 29 | 1298.1 |
| 20260505081409 | 8 | 200 | 3.2 | 3.2 | 0.00 | 0.00 | 0.00 | 27 | 1298.3 |
| 20260505080905 | 8 | 185 | 1.6 | 1.6 | 0.00 | 0.00 | 0.00 | 28 | 1298.2 |
| 20260505080401 | 8 | 223 | 1.6 | 3.2 | 0.00 | 0.00 | 0.00 | 28 | 1298.2 |
| 20260505075857 | 8 | 242 | 3.2 | 3.2 | 0.00 | 0.00 | 0.00 | 29 | 1298.3 |
| 20260505075354 | 9 | 212 | 1.6 | 3.2 | 0.00 | 0.00 | 0.00 | 29 | 1298.2 |
| 20260505074851 | 9 | 170 | 4.8 | 4.8 | 0.00 | 0.00 | 0.00 | 25 | 1298.3 |
| 20260505074343 | 9 | 165 | 1.6 | 3.2 | 0.00 | 0.00 | 0.00 | 25 | 1298.2 |
| 20260505073840 | 9 | 192 | 1.6 | 3.2 | 0.00 | 0.00 | 0.00 | 26 | 1298.4 |
| 20260505073338 | 8 | 176 | 3.2 | 3.2 | 0.00 | 0.00 | 0.00 | 26 | 1298.2 |
| 20260505072835 | 9 | 200 | 3.2 | 6.4 | 0.00 | 0.00 | 0.00 | 27 | 1298.3 |
| 20260505072331 | 9 | 207 | 3.2 | 4.8 | 0.00 | 0.00 | 0.00 | 26 | 1298.2 |
| 20260505071827 | 9 | 208 | 4.8 | 6.4 | 0.00 | 0.00 | 0.00 | 25 | 1298.3 |
| 20260505071323 | 9 | 211 | 4.8 | 6.4 | 0.00 | 0.00 | 0.00 | 25 | 1298.3 |
| 20260505070822 | 10 | 207 | 6.4 | 6.4 | 0.00 | 0.00 | 0.00 | 25 | 1298.3 |
| 20260505070318 | 10 | 176 | 3.2 | 6.4 | 0.00 | 0.00 | 0.00 | 24 | 1298.3 |
| 20260505065813 | 10 | 224 | 4.8 | 9.7 | 0.00 | 0.00 | 0.00 | 23 | 1298.2 |
| 20260505065310 | 10 | 219 | 4.8 | 6.4 | 0.00 | 0.00 | 0.00 | 25 | 1298.2 |
| 20260505064807 | 10 | 214 | 8.0 | 9.7 | 0.00 | 0.00 | 0.00 | 24 | 1297.9 |
| 20260505064304 | 10 | 238 | 3.2 | 12.9 | 0.00 | 0.00 | 0.00 | 24 | 1297.7 |
| 20260505063803 | 10 | 207 | 3.2 | 6.4 | 0.00 | 0.00 | 0.00 | 25 | 1297.9 |
| 20260505063258 | 10 | 192 | 0.0 | 1.6 | 0.00 | 0.00 | 0.00 | 26 | 1297.9 |
| 20260505062755 | 10 | 233 | 3.2 | 3.2 | 0.00 | 0.00 | 0.00 | 26 | 1297.8 |
| 20260505062253 | 10 | 189 | 1.6 | 3.2 | 0.00 | 0.00 | 0.00 | 27 | 1297.9 |
| 20260505061749 | 10 | 260 | 3.2 | 4.8 | 0.00 | 0.00 | 0.00 | 26 | 1297.8 |
| 20260505061247 | 10 | 295 | 3.2 | 6.4 | 0.00 | 0.00 | 0.00 | 30 | 1297.7 |
| 20260505060744 | 10 | 292 | 1.6 | 4.8 | 0.00 | 0.00 | 0.00 | 29 | 1297.6 |
| 20260505060242 | 10 | 292 | 3.2 | 9.7 | 0.00 | 0.00 | 0.00 | 29 | 1297.8 |
| 20260505055736 | 10 | 220 | 3.2 | 6.4 | 0.00 | 0.00 | 0.00 | 29 | 1297.7 |
| 20260505055232 | 10 | 284 | 3.2 | 6.4 | 0.00 | 0.00 | 0.00 | 29 | 1297.4 |
| 20260505054730 | 10 | 276 | 3.2 | 6.4 | 0.00 | 0.00 | 0.00 | 31 | 1297.7 |
| 20260505054228 | 10 | 242 | 4.8 | 4.8 | 0.00 | 0.00 | 0.00 | 31 | 1297.6 |
| 20260505053726 | 10 | 221 | 3.2 | 6.4 | 0.00 | 0.00 | 0.00 | 33 | 1297.6 |
| 20260505053222 | 8 | 263 | 4.8 | 6.4 | 0.00 | 0.00 | 0.00 | 35 | 1297.7 |
| 20260505052719 | 6 | 261 | 3.2 | 4.8 | 0.00 | 0.00 | 0.00 | 43 | 1297.7 |
| 20260505052216 | 7 | 316 | 3.2 | 3.2 | 0.00 | 0.00 | 0.00 | 47 | 1297.7 |
| 20260505051713 | 8 | 185 | 1.6 | 1.6 | 0.00 | 0.00 | 0.00 | 38 | 1297.4 |
| 20260505051211 | 8 | 272 | 1.6 | 3.2 | 0.00 | 0.00 | 0.00 | 37 | 1297.3 |
| 20260505050709 | 7 | 168 | 0.0 | 0.0 | 0.00 | 0.00 | 0.00 | 39 | 1297.4 |
| 20260505050207 | 7 | 294 | 1.6 | 3.2 | 0.00 | 0.00 | 0.00 | 41 | 1297.3 |
| 20260505041636 | 8 | 309 | 4.8 | 4.8 | 0.00 | 0.00 | 0.00 | 40 | 1297.4 |
| 20260505041134 | 8 | 314 | 3.2 | 3.2 | 0.00 | 0.00 | 0.00 | 41 | 1297.3 |
| 20260505040630 | 8 | 320 | 3.2 | 3.2 | 0.00 | 0.00 | 0.00 | 36 | 1297.4 |
| 20260505040128 | 8 | 312 | 3.2 | 3.2 | 0.00 | 0.00 | 0.00 | 37 | 1297.2 |
| 20260505035624 | 8 | 335 | 3.2 | 3.2 | 0.00 | 0.00 | 0.00 | 37 | 1297.4 |
| 20260505035120 | 9 | 298 | 1.6 | 3.2 | 0.00 | 0.00 | 0.00 | 38 | 1297.4 |
| 20260505034617 | 10 | 68 | 1.6 | 4.8 | 0.00 | 0.00 | 0.00 | 33 | 1297.4 |
| 20260505034114 | 10 | 16 | 4.8 | 4.8 | 0.00 | 0.00 | 0.00 | 32 | 1297.3 |
| 20260505033611 | 10 | 18 | 3.2 | 3.2 | 0.00 | 0.00 | 0.00 | 33 | 1297.6 |
| 20260505033110 | 10 | 18 | 1.6 | 4.8 | 0.00 | 0.00 | 0.00 | 32 | 1297.3 |
| 20260505032607 | 10 | 7 | 3.2 | 4.8 | 0.00 | 0.00 | 0.00 | 32 | 1297.1 |
| 20260505032104 | 10 | 23 | 3.2 | 4.8 | 0.00 | 0.00 | 0.00 | 31 | 1297.1 |
| 20260505031601 | 10 | 20 | 3.2 | 4.8 | 0.00 | 0.00 | 0.00 | 32 | 1297.1 |
| 20260505031056 | 11 | 102 | 0.0 | 0.0 | 0.00 | 0.00 | 0.00 | 33 | 1297.0 |
| 20260505030554 | 10 | 130 | 0.0 | 0.0 | 0.00 | 0.00 | 0.00 | 31 | 1296.8 |
| 20260505030049 | 10 | 186 | 1.6 | 1.6 | 0.00 | 0.00 | 0.00 | 35 | 1297.0 |
| 20260505025545 | 10 | 272 | 1.6 | 1.6 | 0.00 | 0.00 | 0.00 | 35 | 1296.8 |
| 20260505025044 | 10 | 294 | 1.6 | 1.6 | 0.00 | 0.00 | 0.00 | 34 | 1296.8 |
| 20260505024542 | 11 | 312 | 3.2 | 3.2 | 0.00 | 0.00 | 0.00 | 31 | 1296.8 |
| 20260505024038 | 12 | 312 | 3.2 | 3.2 | 0.00 | 0.00 | 0.00 | 29 | 1296.7 |
| 20260505023535 | 12 | 283 | 1.6 | 3.2 | 0.00 | 0.00 | 0.00 | 28 | 1297.0 |
| 20260505023033 | 12 | 254 | 1.6 | 3.2 | 0.00 | 0.00 | 0.00 | 28 | 1296.7 |
| 20260505022530 | 12 | 279 | 3.2 | 6.4 | 0.00 | 0.00 | 0.00 | 30 | 1297.0 |
| 20260505022027 | 13 | 226 | 1.6 | 3.2 | 0.00 | 0.00 | 0.00 | 26 | 1296.8 |
| 20260505021524 | 13 | 248 | 3.2 | 3.2 | 0.00 | 0.00 | 0.00 | 26 | 1296.7 |
| 20260505021021 | 13 | 206 | 1.6 | 1.6 | 0.00 | 0.00 | 0.00 | 26 | 1296.6 |
| 20260505020520 | 13 | 177 | 1.6 | 1.6 | 0.00 | 0.00 | 0.00 | 26 | 1296.8 |
| 20260505020018 | 13 | 189 | 0.0 | 1.6 | 0.00 | 0.00 | 0.00 | 26 | 1296.5 |
| 20260505015515 | 13 | 257 | 1.6 | 1.6 | 0.00 | 0.00 | 0.00 | 28 | 1296.8 |
| 20260505015012 | 13 | 277 | 1.6 | 3.2 | 0.00 | 0.00 | 0.00 | 27 | 1296.8 |
| 20260505014508 | 13 | 180 | 0.0 | 1.6 | 0.00 | 0.00 | 0.00 | 26 | 1296.8 |
| 20260505014006 | 13 | 199 | 1.6 | 3.2 | 0.00 | 0.00 | 0.00 | 25 | 1296.6 |
| 20260505013503 | 14 | 198 | 1.6 | 4.8 | 0.00 | 0.00 | 0.00 | 25 | 1296.8 |
| 20260505013000 | 14 | 232 | 3.2 | 6.4 | 0.00 | 0.00 | 0.00 | 23 | 1296.6 |
| 20260505012458 | 15 | 248 | 3.2 | 6.4 | 0.00 | 0.00 | 0.00 | 23 | 1296.6 |
| 20260505011955 | 15 | 206 | 4.8 | 9.7 | 0.00 | 0.00 | 0.00 | 23 | 1296.6 |
| 20260505011450 | 15 | 228 | 3.2 | 9.7 | 0.00 | 0.00 | 0.00 | 23 | 1296.6 |
| 20260505010947 | 15 | 253 | 6.4 | 11.3 | 0.00 | 0.00 | 0.00 | 23 | 1296.8 |
| 20260505010443 | 15 | 254 | 8.0 | 11.3 | 0.00 | 0.00 | 0.00 | 22 | 1297.1 |
| 20260505005939 | 15 | 241 | 1.6 | 11.3 | 0.00 | 0.00 | 0.00 | 23 | 1296.8 |
| 20260505005436 | 15 | 255 | 3.2 | 9.7 | 0.00 | 0.00 | 0.00 | 22 | 1296.7 |
| 20260505004934 | 15 | 270 | 3.2 | 6.4 | 0.00 | 0.00 | 0.00 | 22 | 1297.0 |
| 20260505004430 | 15 | 279 | 4.8 | 4.8 | 0.00 | 0.00 | 0.00 | 20 | 1296.8 |
| 20260505003927 | 15 | 187 | 3.2 | 4.8 | 0.00 | 0.00 | 0.00 | 21 | 1296.7 |
| 20260505003425 | 15 | 237 | 6.4 | 12.9 | 0.00 | 0.00 | 0.00 | 21 | 1296.8 |
| 20260505002920 | 15 | 225 | 9.7 | 14.5 | 0.00 | 0.00 | 0.00 | 20 | 1297.1 |
| 20260505002417 | 15 | 298 | 6.4 | 9.7 | 0.00 | 0.00 | 0.00 | 21 | 1297.1 |
| 20260505001916 | 15 | 277 | 6.4 | 9.7 | 0.00 | 0.00 | 0.00 | 20 | 1297.2 |
| 20260505001413 | 15 | 196 | 6.4 | 11.3 | 0.00 | 0.00 | 0.00 | 19 | 1297.0 |
| 20260505000910 | 15 | 272 | 8.0 | 12.9 | 0.00 | 0.00 | 0.00 | 19 | 1297.1 |
| 20260505000408 | 16 | 160 | 3.2 | 9.7 | 0.00 | 0.00 | 0.00 | 20 | 1297.3 |
| 20260504235904 | 16 | 262 | 6.4 | 9.7 | 0.00 | 0.00 | 0.00 | 20 | 1297.3 |
| 20260504235401 | 16 | 294 | 6.4 | 11.3 | 0.00 | 0.00 | 0.00 | 20 | 1297.2 |
| 20260504234857 | 16 | 236 | 9.7 | 12.9 | 0.00 | 0.00 | 0.00 | 20 | 1297.4 |
| 20260504234355 | 16 | 318 | 8.0 | 14.5 | 0.00 | 0.00 | 0.00 | 20 | 1297.7 |
| 20260504233851 | 16 | 265 | 9.7 | 12.9 | 0.00 | 0.00 | 0.00 | 20 | 1297.6 |
| 20260504233347 | 16 | 307 | 6.4 | 12.9 | 0.00 | 0.00 | 0.00 | 19 | 1297.7 |
| 20260504232844 | 16 | 274 | 12.9 | 20.9 | 0.00 | 0.00 | 0.00 | 19 | 1297.6 |
| 20260504232341 | 16 | 257 | 6.4 | 17.7 | 0.00 | 0.00 | 0.00 | 18 | 1297.7 |
| 20260504231838 | 17 | 240 | 19.3 | 27.4 | 0.00 | 0.00 | 0.00 | 17 | 1297.6 |
| 20260504231334 | 17 | 256 | 8.0 | 22.5 | 0.00 | 0.00 | 0.00 | 17 | 1297.7 |
| 20260504230831 | 16 | 242 | 9.7 | 17.7 | 0.00 | 0.00 | 0.00 | 17 | 1297.7 |
| 20260504230329 | 17 | 248 | 9.7 | 20.9 | 0.00 | 0.00 | 0.00 | 17 | 1297.4 |
| 20260504225827 | 16 | 223 | 12.9 | 20.9 | 0.00 | 0.00 | 0.00 | 19 | 1297.7 |
| 20260504225323 | 16 | 236 | 12.9 | 20.9 | 0.00 | 0.00 | 0.00 | 18 | 1297.6 |
| 20260504224821 | 16 | 297 | 11.3 | 16.1 | 0.00 | 0.00 | 0.00 | 19 | 1297.6 |
| 20260504224318 | 16 | 266 | 11.3 | 17.7 | 0.00 | 0.00 | 0.00 | 19 | 1297.4 |
| 20260504223814 | 16 | 268 | 9.7 | 16.1 | 0.00 | 0.00 | 0.00 | 18 | 1297.6 |
| 20260504223310 | 16 | 232 | 11.3 | 17.7 | 0.00 | 0.00 | 0.00 | 17 | 1297.6 |
| 20260504222807 | 16 | 265 | 8.0 | 12.9 | 0.00 | 0.00 | 0.00 | 17 | 1297.7 |
| 20260504222305 | 16 | 250 | 9.7 | 14.5 | 0.00 | 0.00 | 0.00 | 18 | 1297.8 |
| 20260504221801 | 16 | 285 | 12.9 | 16.1 | 0.00 | 0.00 | 0.00 | 21 | 1297.9 |
| 20260504221258 | 16 | 239 | 12.9 | 17.7 | 0.00 | 0.00 | 0.00 | 22 | 1297.9 |
| 20260504220755 | 16 | 232 | 11.3 | 14.5 | 0.00 | 0.00 | 0.00 | 26 | 1297.8 |
| 20260504220252 | 16 | 242 | 6.4 | 14.5 | 0.00 | 0.00 | 0.00 | 24 | 1298.1 |
| 20260504215749 | 16 | 234 | 17.7 | 24.1 | 0.00 | 0.00 | 0.00 | 25 | 1298.1 |
| 20260504215246 | 16 | 182 | 11.3 | 20.9 | 0.00 | 0.00 | 0.00 | 27 | 1298.1 |
| 20260504214741 | 16 | 201 | 19.3 | 22.5 | 0.00 | 0.00 | 0.00 | 26 | 1297.9 |
| 20260504214238 | 16 | 235 | 6.4 | 9.7 | 0.00 | 0.00 | 0.00 | 27 | 1297.9 |
| 20260504213735 | 16 | 259 | 11.3 | 17.7 | 0.00 | 0.00 | 0.00 | 26 | 1297.9 |
| 20260504213231 | 17 | 236 | 9.7 | 20.9 | 0.00 | 0.00 | 0.00 | 25 | 1298.3 |
| 20260504212728 | 16 | 216 | 8.0 | 17.7 | 0.00 | 0.00 | 0.00 | 27 | 1298.5 |
| 20260504212220 | 16 | 227 | 9.7 | 17.7 | 0.00 | 0.00 | 0.00 | 27 | 1298.7 |
| 20260504211717 | 16 | 240 | 14.5 | 24.1 | 0.00 | 0.00 | 0.00 | 28 | 1298.5 |
| 20260504211213 | 16 | 198 | 6.4 | 12.9 | 0.00 | 0.00 | 0.00 | 29 | 1298.7 |
| 20260504210710 | 16 | 198 | 14.5 | 20.9 | 0.00 | 0.00 | 0.00 | 27 | 1298.8 |
| 20260504210207 | 16 | 204 | 11.3 | 12.9 | 0.00 | 0.00 | 0.00 | 31 | 1298.8 |
| 20260504205704 | 16 | 181 | 14.5 | 22.5 | 0.00 | 0.00 | 0.00 | 29 | 1298.5 |
| 20260504205201 | 15 | 209 | 6.4 | 11.3 | 0.00 | 0.00 | 0.00 | 29 | 1298.9 |
| 20260504204700 | 16 | 236 | 9.7 | 17.7 | 0.00 | 0.00 | 0.00 | 28 | 1299.2 |
| 20260504204158 | 16 | 298 | 12.9 | 27.4 | 0.00 | 0.00 | 0.00 | 28 | 1299.2 |
| 20260504203657 | 15 | 189 | 9.7 | 14.5 | 0.00 | 0.00 | 0.00 | 30 | 1299.2 |
| 20260504203154 | 16 | 224 | 11.3 | 17.7 | 0.00 | 0.00 | 0.00 | 30 | 1299.2 |
| 20260504202648 | 16 | 212 | 22.5 | 27.4 | 0.00 | 0.00 | 0.00 | 29 | 1299.3 |
| 20260504202146 | 16 | 247 | 9.7 | 17.7 | 0.00 | 0.00 | 0.00 | 28 | 1299.5 |
| 20260504201643 | 15 | 256 | 6.4 | 14.5 | 0.00 | 0.00 | 0.00 | 29 | 1299.3 |
| 20260504201140 | 15 | 222 | 9.7 | 20.9 | 0.00 | 0.00 | 0.00 | 30 | 1299.4 |
| 20260504200637 | 15 | 218 | 20.9 | 25.7 | 0.00 | 0.00 | 0.00 | 29 | 1299.5 |
| 20260504200134 | 16 | 258 | 9.7 | 12.9 | 0.00 | 0.00 | 0.00 | 30 | 1299.5 |
| 20260504195630 | 15 | 219 | 4.8 | 11.3 | 0.00 | 0.00 | 0.00 | 30 | 1299.6 |
| 20260504195126 | 15 | 236 | 8.0 | 14.5 | 0.00 | 0.00 | 0.00 | 31 | 1299.9 |
| 20260504194623 | 15 | 199 | 19.3 | 25.7 | 0.00 | 0.00 | 0.00 | 30 | 1299.4 |
| 20260504194119 | 15 | 229 | 16.1 | 22.5 | 0.00 | 0.00 | 0.00 | 30 | 1299.4 |
| 20260504193615 | 15 | 221 | 9.7 | 12.9 | 0.00 | 0.00 | 0.00 | 33 | 1299.6 |
| 20260504193114 | 15 | 228 | 14.5 | 25.7 | 0.00 | 0.00 | 0.00 | 32 | 1299.6 |
| 20260504192612 | 15 | 205 | 9.7 | 20.9 | 0.00 | 0.00 | 0.00 | 33 | 1299.5 |
| 20260504192109 | 15 | 221 | 3.2 | 9.7 | 0.00 | 0.00 | 0.00 | 32 | 1299.5 |
| 20260504191608 | 15 | 203 | 14.5 | 14.5 | 0.00 | 0.00 | 0.00 | 32 | 1299.9 |
| 20260504191103 | 15 | 212 | 8.0 | 14.5 | 0.00 | 0.00 | 0.00 | 34 | 1299.8 |
| 20260504190600 | 15 | 197 | 14.5 | 20.9 | 0.00 | 0.00 | 0.00 | 33 | 1299.9 |
| 20260504190056 | 15 | 201 | 22.5 | 24.1 | 0.00 | 0.00 | 0.00 | 33 | 1300.0 |
| 20260504185553 | 14 | 209 | 9.7 | 16.1 | 0.00 | 0.00 | 0.00 | 35 | 1299.9 |
| 20260504185050 | 15 | 191 | 14.5 | 17.7 | 0.00 | 0.00 | 0.00 | 35 | 1300.0 |
| 20260504184545 | 15 | 207 | 6.4 | 9.7 | 0.00 | 0.00 | 0.00 | 37 | 1300.0 |
| 20260504184040 | 15 | 239 | 11.3 | 22.5 | 0.00 | 0.00 | 0.00 | 35 | 1300.1 |
| 20260504183538 | 15 | 216 | 17.7 | 20.9 | 0.00 | 0.00 | 0.00 | 35 | 1300.1 |
| 20260504183036 | 15 | 221 | 12.9 | 16.1 | 0.00 | 0.00 | 0.00 | 36 | 1300.1 |
| 20260504182532 | 15 | 208 | 19.3 | 25.7 | 0.00 | 0.00 | 0.00 | 37 | 1300.2 |
| 20260504182030 | 13 | 205 | 6.4 | 9.7 | 0.00 | 0.00 | 0.00 | 41 | 1300.5 |
| 20260504181527 | 14 | 215 | 9.7 | 14.5 | 0.00 | 0.00 | 0.00 | 39 | 1300.4 |
| 20260504181025 | 14 | 182 | 4.8 | 16.1 | 0.00 | 0.00 | 0.00 | 41 | 1300.5 |
| 20260504180524 | 14 | 236 | 9.7 | 12.9 | 0.00 | 0.00 | 0.00 | 40 | 1300.5 |
| 20260504180022 | 13 | 221 | 6.4 | 12.9 | 0.00 | 0.00 | 0.00 | 40 | 1300.6 |
| 20260504175519 | 14 | 284 | 3.2 | 11.3 | 0.00 | 0.00 | 0.00 | 41 | 1300.6 |
| 20260504175016 | 13 | 182 | 8.0 | 11.3 | 0.00 | 0.00 | 0.00 | 41 | 1300.5 |
| 20260504174514 | 13 | 219 | 12.9 | 16.1 | 0.00 | 0.00 | 0.00 | 41 | 1300.7 |
| 20260504174011 | 13 | 202 | 14.5 | 16.1 | 0.00 | 0.00 | 0.00 | 42 | 1300.7 |
| 20260504173507 | 13 | 235 | 8.0 | 11.3 | 0.00 | 0.00 | 0.00 | 42 | 1300.6 |
| 20260504173005 | 13 | 215 | 12.9 | 14.5 | 0.00 | 0.00 | 0.00 | 43 | 1300.9 |
| 20260504172500 | 13 | 213 | 6.4 | 17.7 | 0.00 | 0.00 | 0.00 | 42 | 1300.9 |
| 20260504171957 | 13 | 203 | 6.4 | 9.7 | 0.00 | 0.00 | 0.00 | 44 | 1300.9 |
| 20260504171454 | 13 | 184 | 9.7 | 16.1 | 0.00 | 0.00 | 0.00 | 43 | 1300.6 |
| 20260504170951 | 13 | 182 | 3.2 | 11.3 | 0.00 | 0.00 | 0.00 | 42 | 1300.7 |
| 20260504170447 | 13 | 166 | 6.4 | 14.5 | 0.00 | 0.00 | 0.00 | 44 | 1300.5 |
| 20260504160407 | 12 | 197 | 4.8 | 9.7 | 0.00 | 0.00 | 0.00 | 46 | 1301.0 |
| 20260504150831 | 12 | 121 | 1.6 | 3.2 | 0.00 | 0.00 | 0.00 | 46 | 1301.1 |
| 20260504150328 | 11 | 69 | 1.6 | 3.2 | 0.00 | 0.00 | 0.00 | 49 | 1301.2 |
| 20260504141258 | 10 | 311 | 3.2 | 6.4 | 0.00 | 0.00 | 0.00 | 58 | 1301.2 |
| 20260504140754 | 9 | 316 | 1.6 | 3.2 | 0.00 | 0.00 | 0.00 | 62 | 1301.0 |
| 20260504140250 | 9 | 281 | 3.2 | 3.2 | 0.00 | 0.00 | 0.00 | 61 | 1301.2 |
| 20260504130719 | 7 | 3 | 0.0 | 1.6 | 0.00 | 0.00 | 0.00 | 66 | 1300.7 |
| 20260504130214 | 6 | 348 | 3.2 | 4.8 | 0.00 | 0.00 | 0.00 | 68 | 1300.7 |